Walla Walla Regional Airport Walla Walla US
ICAO: KALW
IATA: ALW
Category: Medium
Scheduled Services: Yes

Elevation: 1194 ft
TransAlt. 18000 ft.

Airport Communications:
CHINOOK APP/DEP:133.15
ASOS:135.875
CTAF:118.5
GND:121.6
SEATTLE RDO:122.3
TWR:118.5

KALW Zoom In..

If you have problems with the map follow the link
https://www.worldairports.se/pages/airport.php?
ICAO=KALW

Runways:

(A) RW 02 length 6527 ft width 150 ft
---- / hdg 16

(B) RW 07 length 4486 ft width 150 ft
---- / hdg 70

(C) RW 16 length 5948 ft width 150 ft
---- / hdg 160

(D) RW 20 length 6527 ft width 150 ft
ILS 111.70 / hdg 196

(E) RW 25 length 4486 ft width 150 ft
---- / hdg 250

(F) RW 34 length 5948 ft width 150 ft
---- / hdg 340

Location; KALW
Day. 22 / Time. 09.53 Zulu
* Altimeter: 30.02
* Temperature: 05° c. 41°f.
* Wind from: 190° Speed 09 kn.
Dewpoint: -01° c.
Visibility: 10 Statute Miles.
Clouds: Broken 6000 ft.
Clouds: Overcast 8000 ft.

KALW 220953Z AUTO 19009KT 10SM BKN060 OVC080 05/M01 A3002 RMK AO2 SLP173 T00501006


Wind From 190°
Speed 09 kn.

 
 
jpsmedia worldairports.se 2020   terms of use